Annette Island, AK

5:37 PM AKDT on May 22, 2018 (GMT -0800)
Annette Island

Weather History for PANT - October, 2011

Change the Weather History Date:

Sunday, October 9, 2011

  Actual Average Record
Temperature  
Mean Temperature 50 °F -  
Max Temperature 53 °F 51 °F 62 °F (1993)
Min Temperature 47 °F 41 °F 33 °F (1972)
Degree Days  
Heating Degree Days 15    
Month to date heating degree days 146  
Moisture  
Dew Point 44 °F    
Average Humidity 0    
Maximum Humidity 0    
Minimum Humidity 0    
Precipitation  
Precipitation 0.04 in - - ()
Month to date precipitation 2.65  
Year to date precipitation 78.41  
Snow  
Snow 0.00 in - - ()
Month to date snowfall 0.0  
Snow Depth 0.00 in    
Sea Level Pressure  
Sea Level Pressure 29.71 in    
Wind  
Wind Speed 6 mph (South)    
Max Wind Speed 14 mph    
Max Gust Speed 23 mph    
Visibility 10 miles    
Events Rain    
Averages and records for this station are not official NWS values.
T = Trace of Precipitation, MM = Missing Value Source: NWS Daily Summary

Daily Weather History Graph

Daily Weather History Graph

Search for Another Location

Airport or City:

Astronomy

Oct. 09, 2011 Rise Set
Actual Time 7:03 AM AKDT 6:02 PM AKDT
Civil Twilight 6:27 AM AKDT 6:38 PM AKDT
Nautical Twilight 5:45 AM AKDT 7:20 PM AKDT
Astronomical Twilight 5:02 AM AKDT 8:02 PM AKDT
Moon 4:51 PM AKDT (10/9) 4:41 AM AKDT (10/9)
Length of Visible Light 12h 10m
Length of Day
10h 58m
Waxing Gibbous, 95% of the Moon is Illuminated
Oct 9
Waxing Gibbous
Oct 11
Full
Oct 19
Last Quarter
Oct 26
New
Nov 2
First Quarter

Hourly Weather History & Observations

Time (AKDT) Temp. Dew Point Humidity Pressure Visibility Wind Dir Wind Speed Gust Speed Precip Events Conditions
12:53 AM 50.0 °F 48.0 °F 93% 29.43 in 6.0 mi Calm Calm - 0.00 in Rain Light Rain
1:00 AM 50.0 °F 48.2 °F 94% 29.44 in 2.5 mi Calm Calm - 0.01 in Rain Rain
1:09 AM 50.0 °F 48.2 °F 94% 29.45 in 3.0 mi WSW 5.8 mph - 0.04 in Rain Rain
1:30 AM 50.0 °F 48.2 °F 94% 29.47 in 10.0 mi West 8.1 mph - 0.04 in   Overcast
1:45 AM 48.2 °F 46.4 °F 93% 29.50 in 10.0 mi West 8.1 mph - 0.04 in Rain Light Rain
1:53 AM 48.0 °F 46.0 °F 93% 29.51 in 10.0 mi West 10.4 mph 19.6 mph 0.04 in Rain Light Rain
2:53 AM 48.0 °F 45.0 °F 89% 29.59 in 10.0 mi WSW 9.2 mph - 0.00 in   Overcast
3:53 AM 48.0 °F 45.0 °F 89% 29.65 in 10.0 mi SW 8.1 mph - N/A   Overcast
4:53 AM 48.0 °F 44.1 °F 86% 29.69 in 10.0 mi WSW 5.8 mph 16.1 mph N/A   Mostly Cloudy
5:53 AM 48.0 °F 43.0 °F 83% 29.72 in 10.0 mi Variable 3.5 mph - N/A   Mostly Cloudy
6:53 AM 46.9 °F 43.0 °F 86% 29.75 in 10.0 mi Calm Calm - N/A   Mostly Cloudy
7:53 AM 48.9 °F 43.0 °F 80% 29.77 in 10.0 mi SSE 3.5 mph - N/A   Overcast
8:17 AM 48.2 °F 44.6 °F 87% 29.77 in 10.0 mi South 4.6 mph - N/A   Mostly Cloudy
8:24 AM 48.2 °F 44.6 °F 87% 29.78 in 10.0 mi SSW 4.6 mph - N/A   Overcast
8:53 AM 48.9 °F 44.1 °F 83% 29.79 in 10.0 mi SSW 6.9 mph - N/A   Overcast
9:53 AM 51.1 °F 44.1 °F 77% 29.80 in 10.0 mi SSW 6.9 mph - N/A   Scattered Clouds
10:53 AM 50.0 °F 45.0 °F 83% 29.82 in 10.0 mi SSW 8.1 mph - N/A   Scattered Clouds
11:46 AM 51.8 °F 44.6 °F 76% 29.82 in 10.0 mi South 9.2 mph 16.1 mph 0.00 in   Overcast
11:53 AM 51.1 °F 45.0 °F 80% 29.82 in 10.0 mi South 9.2 mph 17.3 mph 0.00 in   Overcast
12:02 PM 51.8 °F 44.6 °F 76% 29.82 in 10.0 mi South 9.2 mph - N/A   Overcast
12:53 PM 52.0 °F 45.0 °F 77% 29.82 in 10.0 mi Variable 6.9 mph - N/A   Mostly Cloudy
1:26 PM 51.8 °F 44.6 °F 76% 29.81 in 10.0 mi SSE 8.1 mph - N/A   Overcast
2:31 PM 51.8 °F 44.6 °F 76% 29.81 in 10.0 mi Variable 4.6 mph - N/A   Scattered Clouds
2:53 PM 51.1 °F 44.1 °F 77% 29.81 in 10.0 mi South 8.1 mph - N/A   Mostly Cloudy
3:26 PM 51.8 °F 42.8 °F 71% 29.80 in 10.0 mi South 5.8 mph - N/A   Overcast
3:53 PM 51.1 °F 45.0 °F 80% 29.80 in 10.0 mi SSE 5.8 mph - N/A   Overcast
4:53 PM 50.0 °F 44.1 °F 80% 29.78 in 10.0 mi SSE 5.8 mph - N/A   Mostly Cloudy
5:53 PM 50.0 °F 44.1 °F 80% 29.76 in 10.0 mi SE 9.2 mph - N/A   Clear
6:24 PM 50.0 °F 44.6 °F 82% 29.75 in 10.0 mi SE 11.5 mph - N/A   Mostly Cloudy
6:42 PM 50.0 °F 42.8 °F 76% 29.74 in 10.0 mi SSE 6.9 mph - N/A   Mostly Cloudy
6:53 PM 50.0 °F 43.0 °F 77% 29.74 in 10.0 mi SE 9.2 mph - N/A   Mostly Cloudy
7:53 PM 48.9 °F 42.1 °F 77% 29.73 in 10.0 mi SE 13.8 mph 23.0 mph N/A   Mostly Cloudy
8:02 PM 48.2 °F 42.8 °F 82% 29.72 in 10.0 mi SE 10.4 mph - N/A   Mostly Cloudy
8:09 PM 48.2 °F 44.6 °F 87% 29.72 in 10.0 mi ESE 11.5 mph - N/A   Overcast
8:29 PM 48.2 °F 44.6 °F 87% 29.72 in 7.0 mi SE 15.0 mph 21.9 mph 0.01 in Rain Light Rain
8:36 PM 48.2 °F 42.8 °F 82% 29.71 in 10.0 mi ESE 11.5 mph 21.9 mph 0.01 in Rain Light Rain
8:53 PM 46.9 °F 43.0 °F 86% 29.71 in 10.0 mi ESE 10.4 mph - 0.01 in   Overcast
9:11 PM 48.2 °F 42.8 °F 82% 29.70 in 10.0 mi SE 13.8 mph 18.4 mph N/A   Mostly Cloudy
9:43 PM 48.2 °F 42.8 °F 82% 29.69 in 10.0 mi ESE 10.4 mph 17.3 mph N/A   Overcast
9:53 PM 48.0 °F 42.1 °F 80% 29.69 in 10.0 mi ESE 10.4 mph - N/A   Overcast
10:53 PM 48.0 °F 41.0 °F 77% 29.67 in 10.0 mi ESE 10.4 mph - N/A   Overcast
11:53 PM 46.9 °F 41.0 °F 80% 29.65 in 10.0 mi ESE 6.9 mph - 0.01 in Rain Light Rain